SCP
0 0 0 0 0 0 0 0 0 0 0 0 0 0 0 0 0 0 0 0 0 0 0 0 0 0 0 0 0 0 0 0 0 0 0 0 0 0 0 0 0 0 0
0 0 0 0 0 0 0 0 0 0 0 0 0 0 0 0 0 0 0 0 0 0 0 0 0 0 0 0 0 0 0 0 0 0 0 0 0 0 0 0 0 0 0
0 0 0 0 0 0 0 0 0 0 0 0 0 0 0 0 0 0 0 0 0 0 0 0 0 0 0 0 0 0 0 0 0 0 0 0 0 0 0 0 0 0 0
0 0 0 0 0 0 0 0 0 0 0 0 0 0 0 0 0 0 0 0 0 0 0 0 0 0 0 0 0 0 0 0 0 0 0 0 0 0 0 0 0 0 0
0 0 0 0 0 0 0 0 0 0 0 0 0 0 0 0 0 0 0 0 0 0 0 0 0 0 0 0 0 0 0 0 0 0 0 0 0 0 0 0 0 0 0
0 0 0 0 0 0 0 0 0 0 0 0 0 0 0 0 0 0 0 0 0 0 0 0 0 0 0 0 0 0 0 0 0 0 0 0 0 0 0 0 0 0 0
0 0 0 0 0 0 0 0 0 0 0 0 0 0 0 0 0 0 0 0 0 0 0 0 0 0 0 0 0 0 0 0 0 0 0 0 0 0 0 0 0 0 0
0 0 0 0 0 0 0 0 0 0 0 0 0 0 0 0 0 0 0 0 0 0 0 0 0 0 0 0 0 0 0 0 0 0 0 0 0 0 0 0 0 0 0
0 0 0 0 0 0 0 0 0 0 0 0 0 0 0 0 0 0 0 0 0 0 0 0 0 0 0 0 0 0 0 0 0 0 0 0 0 0 0 0 0 0 0
0 0 0 0 0 0 0 0 0 0 0 0 0 0 0 0 0 0 0 0 0 0 0 0 0 0 0 0 0 0 0 0 0 0 0 0 0 0 0 0 0 0 0
0 0 0 0 0 0 0 0 0 0 0 0 0 0 0 0 0 0 0 0 0 0 0 0 0 0 0 0 0 0 0 0 0 0 0 0 0 0 0 0 0 0 0
0 0 0 0 0 0 0 0 0 0 0 0 0 0 0 0 0 0 0 0 0 0 0 0 0 0 0 0 0 0 0 0 0 0 0 0 0 0 0 0 0 0 0
0 0 0 0 0 0 0 0 0 0 0 0 0 0 0 0 0 0 0 0 0 0 0 0 0 0 0 0 0 0 0 0 0 0 0 0 0 0 0 0 0 0 0
0 0 0 0 0 0 0 0 0 0 0 0 0 0 0 0 0 0 0 0 0 0 0 0 0 0 0 0 0 0 0 0 0 0 0 0 0 0 0 0 0 0 0
0 0 0 0 0 0 0 0 0 0 0 0 0 0 0 0 0 0 0 0 0 0 0 0 0 0 0 0 0 0 0 0 0 0 0 0 0 0 0 0 0 0 0
0 0 0 0 0 0 0 0 0 0 0 0 0 0 0 0 0 0 0 0 0 0 0 0 0 0 0 0 0 0 0 0 0 0 0 0 0 0 0 0 0 0 0
0 0 0 0 0 0 0 0 0 0 0 0 0 0 0 0 0 0 0 0 0 0 0 0 0 0 0 0 0 0 0 0 0 0 0 0 0 0 0 0 0 0 0
0 0 0 0 0 0 0 0 0 0 0 0 0 0 0 0 0 0 0 0 0 0 0 0 0 0 0 0 0 0 0 0 0 0 0 0 0 0 0 0 0 0 0
0 0 0 0 0 0 0 0 0 0 0 0 0 0 0 0 0 0 0 0 0 0 0 0 0 0 0 0 0 0 0 0 0 0 0 0 0 0 0 0 0 0 0
0 0 0 0 0 0 0 0 0 0 0 0 0 0 0 0 0 0 0 0 0 0 0 0 0 0 0 0 0 0 0 0 0 0 0 0 0 0 0 0 0 0 0
0 0 0 0 0 0 0 0 0 0 0 0 0 0 0 0 0 0 0 0 0 0 0 0 0 0 0 0 0 0 0 0 0 0 0 0 0 0 0 0 0 0 0
0 0 0 0 0 0 0 0 0 0 0 0 0 0 0 0 0 0 0 0 0 0 0 0 0 0 0 0 0 0 0 0 0 0 0 0 0 0 0 0 0 0 0
0 0 0 0 0 0 0 0 0 0 0 0 0 0 0 0 0 0 0 0 0 0 0 0 0 0 0 0 0 0 0 0 0 0 0 0 0 0 0 0 0 0 0
0 0 0 0 0 0 0 0 0 0 0 0 0 0 0 0 0 0 0 0 0 0 0 0 0 0 0 0 0 0 0 0 0 0 0 0 0 0 0 0 0 0 0
0 0 0 0 0 0 0 0 0 0 0 0 0 0 0 0 0 0 0 0 0 0 0 0 0 0 0 0 0 0 0 0 0 0 0 0 0 0 0 0 0 0 0
0 0 0 0 0 0 0 0 0 0 0 0 0 0 0 0 0 0 0 0 0 0 0 0 0 0 0 0 0 0 0 0 0 0 0 0 0 0 0 0 0 0 0
Wind_Speed
1 1 1 2 2 2 2 3 2 3 3 3 2 3 2 2 1 1 0 2 3 2 3 4 4 5 5 5 6 6 5 5 5 5 5 6 7 7 8 8 8 8 8
0 1 1 2 2 2 2 2 2 2 2 2 2 2 2 2 1 1 1 0 2 2 2 3 3 4 4 4 5 5 5 5 5 4 4 4 5 6 7 7 9 9 9
1 1 1 1 1 1 2 2 3 2 2 2 2 2 2 1 1 1 1 1 0 1 1 1 2 3 3 4 4 4 4 4 4 4 4 4 4 5 6 7 9 10 9
1 1 1 1 1 1 1 2 2 2 2 2 1 1 1 1 1 0 1 1 0 1 0 0 1 2 3 3 4 4 4 4 4 4 4 4 4 4 4 4 6 8 8
1 1 1 1 1 1 1 1 2 1 2 1 1 1 1 1 0 0 0 0 1 1 1 1 0 0 1 2 3 3 4 4 4 4 4 3 3 3 4 4 4 6 6
1 1 1 1 1 1 1 1 2 2 1 1 2 2 1 1 1 1 0 0 1 0 0 1 1 1 0 1 1 2 3 4 4 4 4 3 3 3 4 4 5 6 6
1 1 1 1 1 1 1 1 2 2 1 1 2 2 2 2 2 1 1 1 1 1 1 0 0 1 1 2 1 1 2 3 4 4 4 4 4 3 3 4 4 4 4
1 1 1 1 1 1 1 1 1 1 1 1 1 1 1 2 2 1 1 1 1 1 1 0 0 0 1 1 1 1 1 1 2 3 3 4 4 3 4 4 4 4 4
1 1 1 1 1 1 1 0 1 2 1 0 1 2 2 1 1 1 1 1 1 0 0 1 0 0 0 1 1 1 1 1 1 2 3 3 3 3 3 4 5 5 4
0 1 1 1 1 1 1 1 1 1 2 1 0 0 1 2 2 0 1 1 1 0 0 0 1 1 0 0 1 1 1 1 1 1 2 2 3 3 4 4 4 5 5
0 0 1 1 1 1 1 1 1 1 1 2 1 1 1 1 1 1 1 1 1 1 0 0 0 0 1 1 1 1 1 1 1 1 1 2 2 3 3 4 4 5 5
0 0 1 1 1 1 1 1 1 1 1 1 1 1 1 1 2 2 2 1 1 1 1 0 0 1 1 1 1 1 1 1 1 0 1 1 2 3 3 4 4 4 4
1 1 1 1 1 1 1 1 1 1 1 1 1 1 1 1 1 2 2 1 0 1 1 0 0 1 1 1 1 2 1 2 1 1 1 1 2 2 3 3 3 3 3
2 1 1 1 1 1 1 1 1 1 1 1 1 1 1 1 2 2 3 3 1 0 1 1 1 1 1 1 1 0 1 1 1 1 1 0 1 2 2 3 3 3 3
1 1 1 1 1 1 1 1 1 1 1 1 1 1 1 1 1 2 2 3 3 2 1 1 1 1 1 0 1 0 1 1 0 0 1 1 1 1 2 3 3 3 3
1 1 1 1 1 0 1 1 1 1 1 1 1 1 1 1 1 1 2 2 2 3 2 1 1 1 1 0 1 1 0 1 1 1 1 1 2 2 2 3 3 3 3
1 2 2 2 1 1 0 1 1 0 1 1 1 1 1 1 1 1 1 2 2 2 2 1 0 0 0 0 1 1 1 0 1 1 1 1 1 1 2 2 3 3 3
1 2 2 2 1 1 1 1 1 1 1 1 1 1 1 1 1 1 1 2 2 2 2 2 0 0 1 1 1 1 1 1 0 2 2 2 1 1 1 2 2 2 2
2 2 1 1 1 1 1 1 1 1 1 1 2 2 2 1 1 1 2 2 2 2 2 2 1 0 0 0 1 1 1 1 1 2 2 2 2 1 1 2 2 2 3
2 2 2 2 2 1 1 1 1 1 1 1 1 1 2 2 2 2 2 2 2 2 2 2 1 0 0 0 0 0 1 1 1 2 2 1 2 2 2 2 2 2 3
1 1 1 1 1 1 1 1 1 1 1 1 0 0 1 1 2 2 2 3 3 3 2 2 1 1 0 1 1 1 1 1 1 1 1 2 1 2 2 2 2 2 2
1 1 1 1 1 1 1 1 1 1 1 1 0 1 0 0 1 1 2 3 5 4 4 3 2 2 2 2 1 1 1 1 1 1 1 2 1 2 2 2 2 2 2
1 1 1 1 1 1 1 1 1 1 1 0 1 0 0 0 0 0 1 1 2 3 5 4 4 3 3 3 2 2 2 2 2 1 1 2 1 2 2 2 3 2 2
1 1 0 0 0 1 1 2 1 1 1 0 0 0 1 0 0 1 1 1 1 1 2 3 3 3 3 3 4 3 2 2 1 1 1 2 1 2 2 2 2 2 2
1 0 0 0 0 1 1 2 2 2 1 1 0 0 1 1 1 1 2 1 0 1 0 1 1 1 2 3 3 2 1 1 1 1 1 1 1 1 2 2 2 1 2
1 1 0 0 1 0 0 2 3 2 1 0 1 1 1 0 0 1 2 2 1 1 1 1 1 1 0 1 3 3 2 2 1 1 1 1 1 1 1 1 2 2 2
Wind_Direction
27 12 3 12 14 22 37 50 63 71 84 95 102 111 108 103 98 79 123 165 170 180 195 199 201 204 201 194 190 188 184 184 188 189 197 206 205 206 200 197 197 197 198
72 38 22 23 15 21 42 60 64 72 71 84 86 98 106 101 90 77 44 136 170 178 194 202 203 200 202 195 190 189 188 188 192 194 199 203 203 209 208 206 206 203 203
93 70 39 24 6 24 55 71 68 65 72 80 86 96 106 119 119 100 80 48 53 179 196 210 206 200 202 200 195 194 197 198 199 200 201 208 213 215 213 214 212 204 201
107 86 52 2 1 49 69 84 78 77 68 72 72 66 91 111 123 103 84 85 58 22 24 253 220 204 205 204 208 205 199 197 200 202 206 210 215 213 208 209 205 195 195
100 102 76 22 52 73 70 88 78 92 93 76 70 54 51 56 31 57 77 93 96 61 13 343 103 122 207 214 224 216 202 199 199 205 208 205 205 203 199 202 196 187 195
94 107 98 59 71 75 66 87 96 78 92 94 75 51 32 31 38 55 16 53 71 104 58 15 16 337 289 272 254 237 218 207 201 203 203 204 199 200 200 202 203 198 201
107 109 103 87 90 99 105 107 110 95 66 79 82 45 25 34 39 35 28 42 40 29 56 43 12 356 328 315 302 272 248 219 206 200 198 191 180 184 196 196 195 196 199
108 126 118 126 119 117 93 78 116 117 67 64 105 92 34 10 6 16 22 49 12 14 13 346 291 319 319 313 324 301 284 261 229 210 199 186 178 182 194 192 189 188 187
149 133 146 139 133 138 148 167 121 142 153 61 94 139 139 196 317 349 356 27 19 21 336 333 340 314 273 293 294 326 324 297 249 229 212 201 194 195 193 192 195 197 201
170 158 152 149 153 152 165 211 166 151 156 177 139 78 146 156 156 287 339 349 7 10 312 333 355 357 336 284 299 316 321 314 263 224 209 203 199 197 200 205 208 208 215
252 182 163 155 160 170 177 171 166 164 166 176 177 159 127 102 134 155 245 323 351 333 302 305 328 347 1 353 299 317 342 347 333 239 215 212 212 211 212 218 223 226 230
285 294 165 153 168 178 185 187 183 161 166 157 164 180 176 174 182 167 187 219 273 311 357 359 338 326 348 1 349 16 17 24 9 305 254 245 236 236 231 227 231 239 244
240 255 211 161 173 196 186 165 165 174 165 154 174 203 204 202 172 163 158 179 210 327 346 345 269 283 322 344 330 359 9 24 26 355 289 271 268 269 254 237 239 246 250
229 213 184 167 181 182 163 145 148 197 171 178 191 189 194 212 184 177 170 160 150 8 344 295 327 281 295 294 324 349 338 16 25 354 328 285 271 277 277 262 254 255 256
214 177 161 151 172 171 161 145 146 208 185 194 204 196 197 221 197 201 180 168 160 174 250 268 280 298 296 299 349 272 271 351 309 283 281 274 271 263 260 264 259 251 245
199 170 161 148 155 180 177 162 194 220 171 223 208 171 214 248 209 198 186 178 171 170 200 236 238 280 290 19 51 30 348 359 2 321 293 281 276 267 255 255 254 252 251
190 177 170 161 169 191 181 147 213 209 198 243 243 196 236 222 198 186 163 158 160 161 189 235 225 292 245 344 360 11 9 1 358 360 342 317 289 274 270 262 257 256 259
184 171 164 158 177 186 192 180 210 209 211 246 250 223 245 218 208 182 163 169 173 179 182 199 227 330 269 255 332 352 6 22 16 29 20 360 345 326 302 286 287 273 268
163 161 161 170 187 192 205 208 199 194 208 240 239 223 235 203 215 189 172 168 170 167 167 171 201 238 315 302 12 354 4 357 355 15 20 18 14 9 338 303 291 278 273
158 170 185 200 197 190 212 209 186 187 217 241 237 223 220 202 210 199 181 177 165 153 153 160 178 190 278 271 160 332 341 338 322 336 348 351 356 0 356 339 315 297 282
157 178 183 196 196 192 209 199 196 195 207 248 291 249 222 194 188 188 179 174 163 159 165 170 179 176 215 197 225 241 275 300 292 303 313 325 335 340 333 324 318 318 302
113 113 155 180 215 235 221 188 181 186 184 193 253 283 283 300 272 204 184 173 170 173 178 180 189 202 221 218 214 213 231 290 290 297 298 310 317 314 317 313 325 326 323
116 121 183 181 219 241 190 176 169 149 134 170 218 252 297 28 300 207 172 160 180 186 183 185 193 210 209 206 195 211 215 234 260 265 248 289 298 300 309 323 319 317 325
154 170 178 178 206 248 185 163 143 130 113 66 323 188 192 280 266 177 139 129 163 204 203 200 205 216 217 204 194 199 211 232 270 249 212 260 285 293 310 312 324 320 336
164 201 241 137 73 325 154 158 141 121 109 43 12 301 209 241 280 133 128 129 92 301 325 142 177 194 196 188 169 155 171 207 287 277 212 240 273 295 300 296 298 307 342
173 138 56 47 123 304 264 172 153 139 132 20 357 343 337 303 34 130 149 150 182 271 315 2 21 21 137 159 166 185 196 211 258 268 217 226 266 287 289 290 309 313 314